Погода в Кюсюре

Погода в Кюсюре : погода сейчас, прогноз погоды и архив. Всё, что Вы хотите узнать о погоде в Кюсюре!

Хотите узнать прогноз погоды в Кюсюре? Тогда Вам сюда: Погода в Кюсюре

Поиск расширенной информации на нашем сайте:

Другие новости

Новости СМИ2

Главная страница сайта

Новости сайта

02.10.2013

Напоминаем, что на нашем новом сайте вы можете получить высокодетализированные прогнозы погоды по пунктам России, СНГ и мира (включающие важные для авиации метеовеличины, такие как направление и скорость ветра, видимость, явления погоды, количество и форма облачности, нижняя и верхняя граница облачности), а также ознакомиться с разнообразными материалами по авиационной метеорологии и подборкой полезных ссылок на эту тему.

Сайт Метеоцентр.Азия посвящён разработке технологий оптимизации авиаметеорологического обслуживания, включая проектирование и перспективное создание нескольких автоматизированных авиаметеорологических систем:
- система выпуска высокодетальных прогностических карт явлений погоды для нижнего воздушного пространства по России и ближнему зарубежью;
- система верификации прогнозов TAF (выпускаемых синоптиками официальных АМСГ РФ и ближнего зарубежья) и AUTOTAF (выпускаемых сайтом Метеоцентр.Азия) - выявление ошибок, онлайн-сопоставление с фактической погодой METAR, автоматическое внесение коррективов в прогнозы при резком отклонении фактической погоды от прогноза, подсчёт оправдываемости прогнозов по элементам и в целом;
- система обработки, анализа и отображения авиаметеорологической информации для применения провайдерами метеорологической информации.


Погода в Кюсюре - сегодня

Время (UTC), дата Ветер
(°,м/с) 
Видим.   Явления Облачность Т
(°С)
Тd
(°С)
f(%) Тe
(°С)
Pmin
(гПа)
dP
(гПа)
Po
(мм)
O2
(г/м3)
Тmin Tmax R s Состояние
почвы
03 26.05.17 210 (ЮЗ) 20000 м    8/6 600 м средняя 
[Sc|Ac trans]
+4.2 -3.3 58 +4  1002.9  0.2  749  298           
06 26.05.17 270 (З) 20000 м    6/3 600 м средняя 
[Sc|Ac trans]
+6.4 -3.4 49 +7  1002.9  749  295           
09 26.05.17 030 (СВ) 20000 м    4/3 600 м средняя 
[Sc|Ac trans]
+4.7 -3.3 56 +4  1002.5  -0.4  749  297           
12 26.05.17 040 (СВ) 20000 м    ясно 
+3 -1.8 71 +1  1002.3  -0.2  749  299    +7.6       
15 26.05.17 020 (С) 20000 м    3/0 средняя 
[Ac trans]
+1.6 -1.5 80 -2  1001.7  -0.7  748  300           
18 26.05.17 020 (С) 20000 м    4/3 600 м средняя 
[Sc|Ac trans]
+0 -2.1 86 -3  1001.1  -0.6  748  301           
21 26.05.17 030 (СВ) 20000 м    8/8 600 м 
[Sc]
+1 -1.3 85 -2  1000.4  -0.7  747  300           
09 27.05.17 030 (СВ) 6{10}  20000 м    6/1 1000 м верхняя 
[Cu hum|Ci fib]
+3.1 -1 74 1002  1.5  748  298           
12 27.05.17 030 (СВ) 6{10}  20000 м    6/3 1000 м верхняя 
[Sc|Ci fib]
+2.2 -0.8 81 -1  1003.5  1.5  749  300    +4.6       
15 27.05.17 020 (С) 20000 м    4/4 1000 м 
[Sc]
+0.6 -1.4 86 -2  1004.8  1.2  750  302           
18 27.05.17 020 (С) 20000 м    8/8 1000 м 
[Sc]
+0.9 -1.1 86 -1  1006  1.2  751  302           
21 27.05.17 020 (С) 20000 м    10/8 1000 м 
[Sc]
+1.5 -2 78 -1  1001.3  1.3  752  302           
06 28.05.17 030 (СВ) 20000 м    6/0 средняя 
[Ac trans]
+3.8 -2.4 64 +3  1010.7  0.6  755  300           
09 28.05.17 030 (СВ) 6{10}  20000 м    6/1 1000 м верхняя 
[Cu hum|Ci fib]
+3.1 -1 74 1002  1.5  748  298           
12 28.05.17 020 (С) 20000 м    8/0 средняя 
[Ac trans]
+1.6 -2.5 74 -1  1012.1  756  303    +4       
15 28.05.17 010 (С) 20000 м    8/4 1000 м средняя 
[Sc|Ac trans]
-0.6 -3 84 -3  1012.4  0.3  756  306           
18 28.05.17 010 (С) 20000 м    8/0 средняя, верхняя 
[Ac trans|Ci fib]
-1 -3.2 85 -3  1012.8  0.4  756  306           
21 28.05.17 020 (С) 20000 м    8/0 средняя 
[Ac trans]
-1.4 -3.3 87 -4  1012.9  0.1  756  307           
00 29.05.17 030 (СВ) 20000 м    8/0 средняя 
[Ac trans]
-0.2 -2.9 82 -3  1013.5  0.6  757  306  -1.9      29  неравномерный
мокрый или
старый снег
100% 
03 29.05.17 050 (СВ) 20000 м    6/3 1000 м средняя 
[Sc|Ac trans]
+1.6 -3.2 70 +1  1013.3  -0.2  757  304           
06 29.05.17 020 (С) 20000 м    8/3 1000 м средняя, верхняя 
[Sc|Ac trans|Ci fib]
+2.5 -3.1 66 +3  1013.2  -0.1  757  302           
09 29.05.17 310 (СЗ) 20000 м    6/0 средняя 
[Ac trans]
+1.8 -3.6 67 1013.7  0.5  757  303           
12 29.05.17 300 (СЗ) 20000 м    6/3 600 м средняя 
[Sc|Ac trans]
-0.2 -3.9 76 -3  1014.2  0.5  757  306    +3       
15 29.05.17 330 (СЗ) 20000 м    10/10 1000 м 
[Sc]
-0.8 -3.9 79 -2  1014.1  -0.1  757  307           
18 29.05.17 300 (СЗ) 20000 м    10/10 1000 м 
[Sc]
-2.3 -5.3 80 -4  1014.2  0.1  757  308           
Время (UTC), дата Ветер
(°,м/с) 
Видим.   Явления Облачность Т
(°С)
Тd
(°С)
f(%) Тe
(°С)
Pmin
(гПа)
dP
(гПа)
Po
(мм)
O2
(г/м3)
Тmin Tmax R s Состояние
почвы

Для получения пояснительной информации подведите курсор к названию столбца.

ПОГОДА в Кюсюре - архив

Всё, что Вы хотите узнать о погоде в Кюсюре - удобно и подробно!

Выберите нужную дату (начиная с 1 января 2015* года) и нажмите кнопку "Найти".
Будут отображены архивные сводки погоды по пункту Кюсюр, начиная с указанной даты.


Отображать данные в формате CSV (для использования в таблицах Excel)


Внимание! Наш архив погоды предназначен исключительно для личного некоммерческого использования в познавательных целях. Если Вам необходимы официальные справки о состоянии погоды (для производственных, юридических, коммерческих и т.п. целей), обращайтесь в органы Росгидромета.

*Примечание: данная дата относится к архиву по метеостанциям СССР (Россия, СНГ, Балтия).
Архив по метеостанциям Зарубежной Европы и Азии (кроме Китая) хранится 10 дней, по другим регионам земного шара (Китай, Африка, Америка, Австралия, Океания) - 1 день.

Кюсюр - район местоположения метеостанции


Название, широта, долгота, высота метеостанции:
Кюсюр 70.7°ш. 127.4°д. 33 м над ур. моря [Российская Федерация]

Дополнительная информация

В oтличие oт бoльшинства пoгoдных сайтoв мы публикуем пoдрoбную метеoинфoрмацию в детальнoм прoфессиoнальнoм фoрмате.

Характеристики температуры и влажнoсти вoздуха измеряются на высoте 2 м в тени вдали oт зданий и деревьев.
Скoрoсть ветра измеряется на высoте 10 м (на урoвне рoста челoвека скoрoсть ветра ниже в 1.5-2 раза). Если метеoстанция нахoдится в гoрoде или в лесу, тo скoрoсть ветра занижена на 2-4 м/с пo сравнению с oткрытым местoм. Скoрoсть ветра над акватoриями крупных рек и oзёр, а также на вершинах хoлмoв на 2-5 м/с выше, чем в oбычных услoвиях.
Атмoсфернoе давление в разных тoчках местнoсти мoжет значительнo oтличаться oт давления на метеoстанции, в зависимoсти oт услoвий рельефа (при пoдъёме на 10 м давление пoнижается примернo на 1 мм рт.ст.).